Year,Month,Day,Hour,Minute,Value (Times are PST for temperature in C)
2007,08,30,00,00,16.80
2007,08,30,00,01,16.70
2007,08,30,00,02,16.70
2007,08,30,00,03,16.70
2007,08,30,00,04,16.70
2007,08,30,00,05,16.70
2007,08,30,00,06,16.70
2007,08,30,00,07,16.70
2007,08,30,00,08,16.70
2007,08,30,00,09,16.70
2007,08,30,00,10,16.70
2007,08,30,00,11,16.70
2007,08,30,00,12,16.70
2007,08,30,00,13,16.60
2007,08,30,00,14,16.60
2007,08,30,00,15,16.60
2007,08,30,00,16,16.60
2007,08,30,00,17,16.60
2007,08,30,00,18,16.60
2007,08,30,00,19,16.60
2007,08,30,00,20,16.50
2007,08,30,00,21,16.40
2007,08,30,00,22,16.40
2007,08,30,00,23,16.40
2007,08,30,00,24,16.40
2007,08,30,00,25,16.40
2007,08,30,00,26,16.40
2007,08,30,00,27,16.40
2007,08,30,00,28,16.40
2007,08,30,00,29,16.40
2007,08,30,00,30,16.40
2007,08,30,00,31,16.40
2007,08,30,00,32,16.30
2007,08,30,00,33,16.30
2007,08,30,00,34,16.30
2007,08,30,00,35,16.30
2007,08,30,00,36,16.30
2007,08,30,00,37,16.40
2007,08,30,00,38,16.40
2007,08,30,00,39,16.40
2007,08,30,00,40,16.40
2007,08,30,00,41,16.40
2007,08,30,00,42,16.40
2007,08,30,00,43,16.40
2007,08,30,00,44,16.40
2007,08,30,00,45,16.40
2007,08,30,00,46,16.40
2007,08,30,00,47,16.40
2007,08,30,00,48,16.40
2007,08,30,00,49,16.40
2007,08,30,00,50,16.40
2007,08,30,00,51,16.40
2007,08,30,00,52,16.40
2007,08,30,00,53,16.40
2007,08,30,00,54,16.40
2007,08,30,00,55,16.40
2007,08,30,00,56,16.40
2007,08,30,00,57,16.40
2007,08,30,00,58,16.40
2007,08,30,00,59,16.30
2007,08,30,01,00,16.30
2007,08,30,01,01,16.30
2007,08,30,01,02,16.30
2007,08,30,01,03,16.30
2007,08,30,01,04,16.30
2007,08,30,01,05,16.20
2007,08,30,01,06,16.20
2007,08,30,01,07,16.20
2007,08,30,01,08,16.30
2007,08,30,01,09,16.30
2007,08,30,01,10,16.30
2007,08,30,01,11,16.30
2007,08,30,01,12,16.30
2007,08,30,01,13,16.20
2007,08,30,01,14,16.20
2007,08,30,01,15,16.10
2007,08,30,01,16,16.10
2007,08,30,01,17,16.10
2007,08,30,01,18,16.10
2007,08,30,01,19,16.10
2007,08,30,01,20,16.10
2007,08,30,01,21,16.00
2007,08,30,01,22,15.90
2007,08,30,01,23,15.90
2007,08,30,01,24,15.90
2007,08,30,01,25,15.90
2007,08,30,01,26,15.90
2007,08,30,01,27,15.80
2007,08,30,01,28,15.80
2007,08,30,01,29,15.80
2007,08,30,01,30,15.80
2007,08,30,01,31,15.80
2007,08,30,01,32,15.80
2007,08,30,01,33,15.70
2007,08,30,01,34,15.70
2007,08,30,01,35,15.60
2007,08,30,01,36,15.60
2007,08,30,01,37,15.60
2007,08,30,01,38,15.50
2007,08,30,01,39,15.50
2007,08,30,01,40,15.50
2007,08,30,01,41,15.50
2007,08,30,01,42,15.50
2007,08,30,01,43,15.40
2007,08,30,01,44,15.40
2007,08,30,01,45,15.40
2007,08,30,01,46,15.40
2007,08,30,01,47,15.40
2007,08,30,01,48,15.40
2007,08,30,01,49,15.40
2007,08,30,01,50,15.40
2007,08,30,01,51,15.30
2007,08,30,01,52,15.30
2007,08,30,01,53,15.30
2007,08,30,01,54,15.30
2007,08,30,01,55,15.30
2007,08,30,01,56,15.30
2007,08,30,01,57,15.30
2007,08,30,01,58,15.30
2007,08,30,01,59,15.30
2007,08,30,02,00,15.30
2007,08,30,02,01,15.30
2007,08,30,02,02,15.30
2007,08,30,02,03,15.30
2007,08,30,02,04,15.30
2007,08,30,02,05,15.30
2007,08,30,02,06,15.30
2007,08,30,02,07,15.30
2007,08,30,02,08,15.30
2007,08,30,02,09,15.30
2007,08,30,02,10,15.30
2007,08,30,02,11,15.30
2007,08,30,02,12,15.30
2007,08,30,02,13,15.30
2007,08,30,02,14,15.20
2007,08,30,02,15,15.20
2007,08,30,02,16,15.20
2007,08,30,02,17,15.20
2007,08,30,02,18,15.20
2007,08,30,02,19,15.30
2007,08,30,02,20,15.30
2007,08,30,02,21,15.30
2007,08,30,02,22,15.30
2007,08,30,02,23,15.30
2007,08,30,02,24,15.30
2007,08,30,02,25,15.30
2007,08,30,02,26,15.30
2007,08,30,02,27,15.40
2007,08,30,02,28,15.40
2007,08,30,02,29,15.50
2007,08,30,02,30,15.50
2007,08,30,02,31,15.50
2007,08,30,02,32,15.60
2007,08,30,02,33,15.70
2007,08,30,02,34,15.70
2007,08,30,02,35,15.70
2007,08,30,02,36,15.80
2007,08,30,02,37,15.80
2007,08,30,02,38,15.80
2007,08,30,02,39,15.80
2007,08,30,02,40,15.80
2007,08,30,02,41,15.80
2007,08,30,02,42,15.80
2007,08,30,02,43,15.90
2007,08,30,02,44,15.90
2007,08,30,02,45,15.90
2007,08,30,02,46,15.90
2007,08,30,02,47,15.90
2007,08,30,02,48,15.90
2007,08,30,02,49,15.90
2007,08,30,02,50,15.90
2007,08,30,02,51,15.90
2007,08,30,02,52,15.90
2007,08,30,02,53,15.90
2007,08,30,02,54,15.90
2007,08,30,02,55,15.90
2007,08,30,02,56,15.90
2007,08,30,02,57,15.90
2007,08,30,02,58,15.90
2007,08,30,02,59,15.90
2007,08,30,03,00,15.90
2007,08,30,03,01,15.90
2007,08,30,03,02,15.90
2007,08,30,03,03,15.90
2007,08,30,03,04,15.90
2007,08,30,03,05,15.90
2007,08,30,03,06,15.80
2007,08,30,03,07,15.80
2007,08,30,03,08,15.80
2007,08,30,03,09,15.80
2007,08,30,03,10,15.80
2007,08,30,03,11,15.80
2007,08,30,03,12,15.80
2007,08,30,03,13,15.80
2007,08,30,03,14,15.80
2007,08,30,03,15,15.80
2007,08,30,03,16,15.80
2007,08,30,03,17,15.80
2007,08,30,03,18,15.80
2007,08,30,03,19,15.70
2007,08,30,03,20,15.70
2007,08,30,03,21,15.70
2007,08,30,03,22,15.60
2007,08,30,03,23,15.60
2007,08,30,03,24,15.50
2007,08,30,03,25,15.50
2007,08,30,03,26,15.40
2007,08,30,03,27,15.30
2007,08,30,03,28,15.30
2007,08,30,03,29,15.20
2007,08,30,03,30,15.10
2007,08,30,03,31,15.10
2007,08,30,03,32,15.00
2007,08,30,03,33,14.90
2007,08,30,03,34,14.80
2007,08,30,03,35,14.80
2007,08,30,03,36,14.70
2007,08,30,03,37,14.60
2007,08,30,03,38,14.60
2007,08,30,03,39,14.50
2007,08,30,03,40,14.50
2007,08,30,03,41,14.40
2007,08,30,03,42,14.40
2007,08,30,03,43,14.40
2007,08,30,03,44,14.40
2007,08,30,03,45,14.40
2007,08,30,03,46,14.30
2007,08,30,03,47,14.30
2007,08,30,03,48,14.30
2007,08,30,03,49,14.30
2007,08,30,03,50,14.40
2007,08,30,03,51,14.40
2007,08,30,03,52,14.40
2007,08,30,03,53,14.40
2007,08,30,03,54,14.40
2007,08,30,03,55,14.40
2007,08,30,03,56,14.40
2007,08,30,03,57,14.40
2007,08,30,03,58,14.40
2007,08,30,03,59,14.30
2007,08,30,04,00,14.30
2007,08,30,04,01,14.30
2007,08,30,04,02,14.30
2007,08,30,04,03,14.30
2007,08,30,04,04,14.20
2007,08,30,04,05,14.20
2007,08,30,04,06,14.20
2007,08,30,04,07,14.20
2007,08,30,04,08,14.20
2007,08,30,04,09,14.10
2007,08,30,04,10,14.10
2007,08,30,04,11,14.00
2007,08,30,04,12,14.00
2007,08,30,04,13,13.90
2007,08,30,04,14,13.90
2007,08,30,04,15,13.90
2007,08,30,04,16,13.80
2007,08,30,04,17,13.80
2007,08,30,04,18,13.80
2007,08,30,04,19,13.80
2007,08,30,04,20,13.80
2007,08,30,04,21,13.80
2007,08,30,04,22,13.70
2007,08,30,04,23,13.80
2007,08,30,04,24,13.80
2007,08,30,04,25,13.80
2007,08,30,04,26,13.80
2007,08,30,04,27,13.80
2007,08,30,04,28,13.80
2007,08,30,04,29,13.90
2007,08,30,04,30,13.90
2007,08,30,04,31,13.90
2007,08,30,04,32,13.90
2007,08,30,04,33,14.00
2007,08,30,04,34,14.00
2007,08,30,04,35,14.00
2007,08,30,04,36,14.00
2007,08,30,04,37,14.00
2007,08,30,04,38,14.00
2007,08,30,04,39,14.00
2007,08,30,04,40,13.90
2007,08,30,04,41,13.90
2007,08,30,04,42,13.90
2007,08,30,04,43,13.90
2007,08,30,04,44,13.90
2007,08,30,04,45,13.90
2007,08,30,04,46,13.90
2007,08,30,04,47,13.90
2007,08,30,04,48,13.80
2007,08,30,04,49,13.80
2007,08,30,04,50,13.80
2007,08,30,04,51,13.80
2007,08,30,04,52,13.80
2007,08,30,04,53,13.80
2007,08,30,04,54,13.80
2007,08,30,04,55,13.80
2007,08,30,04,56,13.80
2007,08,30,04,57,13.80
2007,08,30,04,58,13.80
2007,08,30,04,59,13.80
2007,08,30,05,00,13.80
2007,08,30,05,01,13.80
2007,08,30,05,02,13.80
2007,08,30,05,03,13.70
2007,08,30,05,04,13.70
2007,08,30,05,05,13.70
2007,08,30,05,06,13.70
2007,08,30,05,07,13.70
2007,08,30,05,08,13.70
2007,08,30,05,09,13.70
2007,08,30,05,10,13.70
2007,08,30,05,11,13.70
2007,08,30,05,12,13.70
2007,08,30,05,13,13.70
2007,08,30,05,14,13.70
2007,08,30,05,15,13.70
2007,08,30,05,16,13.70
2007,08,30,05,17,13.70
2007,08,30,05,18,13.70
2007,08,30,05,19,13.70
2007,08,30,05,20,13.70
2007,08,30,05,21,13.60
2007,08,30,05,22,13.70
2007,08,30,05,23,13.60
2007,08,30,05,24,13.60
2007,08,30,05,25,13.60
2007,08,30,05,26,13.60
2007,08,30,05,27,13.60
2007,08,30,05,28,13.60
2007,08,30,05,29,13.60
2007,08,30,05,30,13.60
2007,08,30,05,31,13.60
2007,08,30,05,32,13.60
2007,08,30,05,33,13.60
2007,08,30,05,34,13.60
2007,08,30,05,35,13.60
2007,08,30,05,36,13.50
2007,08,30,05,37,13.50
2007,08,30,05,38,13.50
2007,08,30,05,39,13.50
2007,08,30,05,40,13.50
2007,08,30,05,41,13.50
2007,08,30,05,42,13.40
2007,08,30,05,43,13.40
2007,08,30,05,44,13.40
2007,08,30,05,45,13.40
2007,08,30,05,46,13.40
2007,08,30,05,47,13.40
2007,08,30,05,48,13.40
2007,08,30,05,49,13.40
2007,08,30,05,50,13.40
2007,08,30,05,51,13.30
2007,08,30,05,52,13.30
2007,08,30,05,53,13.30
2007,08,30,05,54,13.30
2007,08,30,05,55,13.30
2007,08,30,05,56,13.30
2007,08,30,05,57,13.30
2007,08,30,05,58,13.30
2007,08,30,05,59,13.30
2007,08,30,06,00,13.30
2007,08,30,06,01,13.30
2007,08,30,06,02,13.30
2007,08,30,06,03,13.30
2007,08,30,06,04,13.30
2007,08,30,06,05,13.30
2007,08,30,06,06,13.30
2007,08,30,06,07,13.30
2007,08,30,06,08,13.20
2007,08,30,06,09,13.20
2007,08,30,06,10,13.20
2007,08,30,06,11,13.20
2007,08,30,06,12,13.20
2007,08,30,06,13,13.20
2007,08,30,06,14,13.10
2007,08,30,06,15,13.10
2007,08,30,06,16,13.10
2007,08,30,06,17,13.10
2007,08,30,06,18,13.00
2007,08,30,06,19,13.00
2007,08,30,06,20,13.00
2007,08,30,06,21,13.00
2007,08,30,06,22,13.00
2007,08,30,06,23,13.10
2007,08,30,06,24,13.10
2007,08,30,06,25,13.10
2007,08,30,06,26,13.10
2007,08,30,06,27,13.10
2007,08,30,06,28,13.10
2007,08,30,06,29,13.10
2007,08,30,06,30,13.10
2007,08,30,06,31,13.10
2007,08,30,06,32,13.10
2007,08,30,06,33,13.10
2007,08,30,06,34,13.10
2007,08,30,06,35,13.20
2007,08,30,06,36,13.20
2007,08,30,06,37,13.20
2007,08,30,06,38,13.20
2007,08,30,06,39,13.20
2007,08,30,06,40,13.20
2007,08,30,06,41,13.30
2007,08,30,06,42,13.30
2007,08,30,06,43,13.30
2007,08,30,06,44,13.30
2007,08,30,06,45,13.30
2007,08,30,06,46,13.30
2007,08,30,06,47,13.30
2007,08,30,06,48,13.30
2007,08,30,06,49,13.30
2007,08,30,06,50,13.30
2007,08,30,06,51,13.30
2007,08,30,06,52,13.40
2007,08,30,06,53,13.40
2007,08,30,06,54,13.40
2007,08,30,06,55,13.40
2007,08,30,06,56,13.40
2007,08,30,06,57,13.40
2007,08,30,06,58,13.40
2007,08,30,06,59,13.50
2007,08,30,07,00,13.50
2007,08,30,07,01,13.50
2007,08,30,07,02,13.50
2007,08,30,07,03,13.60
2007,08,30,07,04,13.60
2007,08,30,07,05,13.60
2007,08,30,07,06,13.60
2007,08,30,07,07,13.70
2007,08,30,07,08,13.70
2007,08,30,07,09,13.60
2007,08,30,07,10,13.60
2007,08,30,07,11,13.60
2007,08,30,07,12,13.60
2007,08,30,07,13,13.60
2007,08,30,07,14,13.60
2007,08,30,07,15,13.60
2007,08,30,07,16,13.60
2007,08,30,07,17,13.60
2007,08,30,07,18,13.60
2007,08,30,07,19,13.60
2007,08,30,07,20,13.60
2007,08,30,07,21,13.70
2007,08,30,07,22,13.70
2007,08,30,07,23,13.70
2007,08,30,07,24,13.70
2007,08,30,07,25,13.80
2007,08,30,07,26,13.80
2007,08,30,07,27,13.80
2007,08,30,07,28,13.80
2007,08,30,07,29,13.90
2007,08,30,07,30,13.90
2007,08,30,07,31,13.90
2007,08,30,07,32,13.90
2007,08,30,07,33,13.90
2007,08,30,07,34,13.90
2007,08,30,07,35,14.00
2007,08,30,07,36,14.00
2007,08,30,07,37,14.00
2007,08,30,07,38,14.00
2007,08,30,07,39,14.00
2007,08,30,07,40,14.00
2007,08,30,07,41,14.00
2007,08,30,07,42,14.10
2007,08,30,07,43,14.10
2007,08,30,07,44,14.20
2007,08,30,07,45,14.20
2007,08,30,07,46,14.20
2007,08,30,07,47,14.30
2007,08,30,07,48,14.40
2007,08,30,07,49,14.50
2007,08,30,07,50,14.60
2007,08,30,07,51,14.60
2007,08,30,07,52,14.70
2007,08,30,07,53,14.70
2007,08,30,07,54,14.80
2007,08,30,07,55,14.80
2007,08,30,07,56,14.80
2007,08,30,07,57,14.80
2007,08,30,07,58,14.80
2007,08,30,07,59,14.80
2007,08,30,08,00,14.80
2007,08,30,08,01,14.80
2007,08,30,08,02,14.80
2007,08,30,08,03,14.80
2007,08,30,08,04,14.80
2007,08,30,08,05,14.80
2007,08,30,08,06,14.90
2007,08,30,08,07,14.90
2007,08,30,08,08,14.90
2007,08,30,08,09,14.90
2007,08,30,08,10,14.90
2007,08,30,08,11,15.00
2007,08,30,08,12,15.00
2007,08,30,08,13,15.00
2007,08,30,08,14,15.00
2007,08,30,08,15,15.00
2007,08,30,08,16,15.10
2007,08,30,08,17,15.10
2007,08,30,08,18,15.10
2007,08,30,08,19,15.20
2007,08,30,08,20,15.20
2007,08,30,08,21,15.20
2007,08,30,08,22,15.20
2007,08,30,08,23,15.30
2007,08,30,08,24,15.30
2007,08,30,08,25,15.30
2007,08,30,08,26,15.30
2007,08,30,08,27,15.30
2007,08,30,08,28,15.30
2007,08,30,08,29,15.40
2007,08,30,08,30,15.40
2007,08,30,08,31,15.40
2007,08,30,08,32,15.40
2007,08,30,08,33,15.40
2007,08,30,08,34,15.40
2007,08,30,08,35,15.40
2007,08,30,08,36,15.40
2007,08,30,08,37,15.40
2007,08,30,08,38,15.40
2007,08,30,08,39,15.40
2007,08,30,08,40,15.50
2007,08,30,08,41,15.50
2007,08,30,08,42,15.50
2007,08,30,08,43,15.60
2007,08,30,08,44,15.60
2007,08,30,08,45,15.60
2007,08,30,08,46,15.60
2007,08,30,08,47,15.60
2007,08,30,08,48,15.50
2007,08,30,08,49,15.50
2007,08,30,08,50,15.60
2007,08,30,08,51,15.60
2007,08,30,08,52,15.60
2007,08,30,08,53,15.60
2007,08,30,08,54,15.60
2007,08,30,08,55,15.50
2007,08,30,08,56,15.50
2007,08,30,08,57,15.40
2007,08,30,08,58,15.40
2007,08,30,08,59,15.40
2007,08,30,09,00,15.50
2007,08,30,09,01,15.50
2007,08,30,09,02,15.50
2007,08,30,09,03,15.40
2007,08,30,09,04,15.40
2007,08,30,09,05,15.40
2007,08,30,09,06,15.50
2007,08,30,09,07,15.50
2007,08,30,09,08,15.60
2007,08,30,09,09,15.60
2007,08,30,09,10,15.60
2007,08,30,09,11,15.60
2007,08,30,09,12,15.60
2007,08,30,09,13,15.60
2007,08,30,09,14,15.60
2007,08,30,09,15,15.60
2007,08,30,09,16,15.60
2007,08,30,09,17,15.70
2007,08,30,09,18,15.70
2007,08,30,09,19,15.70
2007,08,30,09,20,15.70
2007,08,30,09,21,15.80
2007,08,30,09,22,15.80
2007,08,30,09,23,15.80
2007,08,30,09,24,15.80
2007,08,30,09,25,15.80
2007,08,30,09,26,15.80
2007,08,30,09,27,15.80
2007,08,30,09,28,15.80
2007,08,30,09,29,15.80
2007,08,30,09,30,15.80
2007,08,30,09,31,15.80
2007,08,30,09,32,15.80
2007,08,30,09,33,15.80
2007,08,30,09,34,15.90
2007,08,30,09,35,15.90
2007,08,30,09,36,15.90
2007,08,30,09,37,16.00
2007,08,30,09,38,16.10
2007,08,30,09,39,16.10
2007,08,30,09,40,16.10
2007,08,30,09,41,16.10
2007,08,30,09,42,16.10
2007,08,30,09,43,16.10
2007,08,30,09,44,16.10
2007,08,30,09,45,16.10
2007,08,30,09,46,16.10
2007,08,30,09,47,16.10
2007,08,30,09,48,16.10
2007,08,30,09,49,16.10
2007,08,30,09,50,16.20
2007,08,30,09,51,16.20
2007,08,30,09,52,16.30
2007,08,30,09,53,16.40
2007,08,30,09,54,16.40
2007,08,30,09,55,16.40
2007,08,30,09,56,16.40
2007,08,30,09,57,16.40
2007,08,30,09,58,16.40
2007,08,30,09,59,16.50
2007,08,30,10,00,16.60
2007,08,30,10,01,16.70
2007,08,30,10,02,16.70
2007,08,30,10,03,16.70
2007,08,30,10,04,16.70
2007,08,30,10,05,16.70
2007,08,30,10,06,16.70
2007,08,30,10,07,16.70
2007,08,30,10,08,16.60
2007,08,30,10,09,16.50
2007,08,30,10,10,16.40
2007,08,30,10,11,16.40
2007,08,30,10,12,16.40
2007,08,30,10,13,16.30
2007,08,30,10,14,16.30
2007,08,30,10,15,16.20
2007,08,30,10,16,16.20
2007,08,30,10,17,16.30
2007,08,30,10,18,16.30
2007,08,30,10,19,16.40
2007,08,30,10,20,16.40
2007,08,30,10,21,16.60
2007,08,30,10,22,16.60
2007,08,30,10,23,16.70
2007,08,30,10,24,16.80
2007,08,30,10,25,16.90
2007,08,30,10,26,16.90
2007,08,30,10,27,16.90
2007,08,30,10,28,17.00
2007,08,30,10,29,17.00
2007,08,30,10,30,17.00
2007,08,30,10,31,17.00
2007,08,30,10,32,17.10
2007,08,30,10,33,17.10
2007,08,30,10,34,17.20
2007,08,30,10,35,17.20
2007,08,30,10,36,17.30
2007,08,30,10,37,17.30
2007,08,30,10,38,17.30
2007,08,30,10,39,17.40
2007,08,30,10,40,17.50
2007,08,30,10,41,17.50
2007,08,30,10,42,17.60
2007,08,30,10,43,17.70
2007,08,30,10,44,17.80
2007,08,30,10,45,17.80
2007,08,30,10,46,17.90
2007,08,30,10,47,17.90
2007,08,30,10,48,17.90
2007,08,30,10,49,17.90
2007,08,30,10,50,17.90
2007,08,30,10,51,17.90
2007,08,30,10,52,17.90
2007,08,30,10,53,17.80
2007,08,30,10,54,17.70
2007,08,30,10,55,17.60
2007,08,30,10,56,17.60
2007,08,30,10,57,17.50
2007,08,30,10,58,17.50
2007,08,30,10,59,17.50
2007,08,30,11,00,17.40
2007,08,30,11,01,17.50
2007,08,30,11,02,17.60
2007,08,30,11,03,17.70
2007,08,30,11,04,17.70
2007,08,30,11,05,17.80
2007,08,30,11,06,17.80
2007,08,30,11,07,17.90
2007,08,30,11,08,17.90
2007,08,30,11,09,18.00
2007,08,30,11,10,18.10
2007,08,30,11,11,18.10
2007,08,30,11,12,18.20
2007,08,30,11,13,18.20
2007,08,30,11,14,18.30
2007,08,30,11,15,18.20
2007,08,30,11,16,18.20
2007,08,30,11,17,18.20
2007,08,30,11,18,18.20
2007,08,30,11,19,18.30
2007,08,30,11,20,18.30
2007,08,30,11,21,18.30
2007,08,30,11,22,18.40
2007,08,30,11,23,18.40
2007,08,30,11,24,18.40
2007,08,30,11,25,18.40
2007,08,30,11,26,18.40
2007,08,30,11,27,18.30
2007,08,30,11,28,18.30
2007,08,30,11,29,18.30
2007,08,30,11,30,18.20
2007,08,30,11,31,18.20
2007,08,30,11,32,18.30
2007,08,30,11,33,18.30
2007,08,30,11,34,18.40
2007,08,30,11,35,18.40
2007,08,30,11,36,18.50
2007,08,30,11,37,18.50
2007,08,30,11,38,18.60
2007,08,30,11,39,18.70
2007,08,30,11,40,18.70
2007,08,30,11,41,18.70
2007,08,30,11,42,18.60
2007,08,30,11,43,18.50
2007,08,30,11,44,18.50
2007,08,30,11,45,18.50
2007,08,30,11,46,18.50
2007,08,30,11,47,18.40
2007,08,30,11,48,18.40
2007,08,30,11,49,18.30
2007,08,30,11,50,18.30
2007,08,30,11,51,18.30
2007,08,30,11,52,18.40
2007,08,30,11,53,18.50
2007,08,30,11,54,18.50
2007,08,30,11,55,18.60
2007,08,30,11,56,18.60
2007,08,30,11,57,18.50
2007,08,30,11,58,18.50
2007,08,30,11,59,18.40
2007,08,30,12,00,18.50
2007,08,30,12,01,18.50
2007,08,30,12,02,18.60
2007,08,30,12,03,18.70
2007,08,30,12,04,18.80
2007,08,30,12,05,18.90
2007,08,30,12,06,19.10
2007,08,30,12,07,19.10
2007,08,30,12,08,19.10
2007,08,30,12,09,19.20
2007,08,30,12,10,19.20
2007,08,30,12,11,19.10
2007,08,30,12,12,19.10
2007,08,30,12,13,19.20
2007,08,30,12,14,19.30
2007,08,30,12,15,19.30
2007,08,30,12,16,19.40
2007,08,30,12,17,19.40
2007,08,30,12,18,19.40
2007,08,30,12,19,19.30
2007,08,30,12,20,19.20
2007,08,30,12,21,19.10
2007,08,30,12,22,19.10
2007,08,30,12,23,19.00
2007,08,30,12,24,18.90
2007,08,30,12,25,18.90
2007,08,30,12,26,18.90
2007,08,30,12,27,18.90
2007,08,30,12,28,19.00
2007,08,30,12,29,19.10
2007,08,30,12,30,19.10
2007,08,30,12,31,19.10
2007,08,30,12,32,19.30
2007,08,30,12,33,19.40
2007,08,30,12,34,19.50
2007,08,30,12,35,19.50
2007,08,30,12,36,19.60
2007,08,30,12,37,19.60
2007,08,30,12,38,19.60
2007,08,30,12,39,19.70
2007,08,30,12,40,19.80
2007,08,30,12,41,19.80
2007,08,30,12,42,19.80
2007,08,30,12,43,19.80
2007,08,30,12,44,19.70
2007,08,30,12,45,19.60
2007,08,30,12,46,19.60
2007,08,30,12,47,19.60
2007,08,30,12,48,19.60
2007,08,30,12,49,19.70
2007,08,30,12,50,19.80
2007,08,30,12,51,19.80
2007,08,30,12,52,19.90
2007,08,30,12,53,19.90
2007,08,30,12,54,19.90
2007,08,30,12,55,19.80
2007,08,30,12,56,19.90
2007,08,30,12,57,19.90
2007,08,30,12,58,19.90
2007,08,30,12,59,19.90
2007,08,30,13,00,19.90
2007,08,30,13,01,20.00
2007,08,30,13,02,20.10
2007,08,30,13,03,20.20
2007,08,30,13,04,20.30
2007,08,30,13,05,20.20
2007,08,30,13,06,20.20
2007,08,30,13,07,20.20
2007,08,30,13,08,20.20
2007,08,30,13,09,20.20
2007,08,30,13,10,20.20
2007,08,30,13,11,20.20
2007,08,30,13,12,20.20
2007,08,30,13,13,20.20
2007,08,30,13,14,20.20
2007,08,30,13,15,20.30
2007,08,30,13,16,20.30
2007,08,30,13,17,20.30
2007,08,30,13,18,20.30
2007,08,30,13,19,20.30
2007,08,30,13,20,20.30
2007,08,30,13,21,20.30
2007,08,30,13,22,20.40
2007,08,30,13,23,20.30
2007,08,30,13,24,20.30
2007,08,30,13,25,20.30
2007,08,30,13,26,20.40
2007,08,30,13,27,20.40
2007,08,30,13,28,20.40
2007,08,30,13,29,20.30
2007,08,30,13,30,20.30
2007,08,30,13,31,20.20
2007,08,30,13,32,20.20
2007,08,30,13,33,20.20
2007,08,30,13,34,20.20
2007,08,30,13,35,20.30
2007,08,30,13,36,20.40
2007,08,30,13,37,20.50
2007,08,30,13,38,20.50
2007,08,30,13,39,20.50
2007,08,30,13,40,20.50
2007,08,30,13,41,20.60
2007,08,30,13,42,20.50
2007,08,30,13,43,20.50
2007,08,30,13,44,20.50
2007,08,30,13,45,20.50
2007,08,30,13,46,20.50
2007,08,30,13,47,20.40
2007,08,30,13,48,20.40
2007,08,30,13,49,20.40
2007,08,30,13,50,20.50
2007,08,30,13,51,20.60
2007,08,30,13,52,20.70
2007,08,30,13,53,20.70
2007,08,30,13,54,20.70
2007,08,30,13,55,20.80
2007,08,30,13,56,20.80
2007,08,30,13,57,20.90
2007,08,30,13,58,20.90
2007,08,30,13,59,20.90
2007,08,30,14,00,20.90
2007,08,30,14,01,21.00
2007,08,30,14,02,21.10
2007,08,30,14,03,21.10
2007,08,30,14,04,21.20
2007,08,30,14,05,21.30
2007,08,30,14,06,21.30
2007,08,30,14,07,21.30
2007,08,30,14,08,21.40
2007,08,30,14,09,21.40
2007,08,30,14,10,21.40
2007,08,30,14,11,21.40
2007,08,30,14,12,21.40
2007,08,30,14,13,21.30
2007,08,30,14,14,21.30
2007,08,30,14,15,21.30
2007,08,30,14,16,21.30
2007,08,30,14,17,21.30
2007,08,30,14,18,21.30
2007,08,30,14,19,21.30
2007,08,30,14,20,21.40
2007,08,30,14,21,21.50
2007,08,30,14,22,21.60
2007,08,30,14,23,21.60
2007,08,30,14,24,21.60
2007,08,30,14,25,21.70
2007,08,30,14,26,21.70
2007,08,30,14,27,21.70
2007,08,30,14,28,21.70
2007,08,30,14,29,21.60
2007,08,30,14,30,21.60
2007,08,30,14,31,21.60
2007,08,30,14,32,21.60
2007,08,30,14,33,21.70
2007,08,30,14,34,21.70
2007,08,30,14,35,21.70
2007,08,30,14,36,21.60
2007,08,30,14,37,21.60
2007,08,30,14,38,21.60
2007,08,30,14,39,21.60
2007,08,30,14,40,21.60
2007,08,30,14,41,21.60
2007,08,30,14,42,21.60
2007,08,30,14,43,21.60
2007,08,30,14,44,21.60
2007,08,30,14,45,21.70
2007,08,30,14,46,21.90
2007,08,30,14,47,22.00
2007,08,30,14,48,22.20
2007,08,30,14,49,22.20
2007,08,30,14,50,22.30
2007,08,30,14,51,22.30
2007,08,30,14,52,22.40
2007,08,30,14,53,22.50
2007,08,30,14,54,22.50
2007,08,30,14,55,22.50
2007,08,30,14,56,22.40
2007,08,30,14,57,22.30
2007,08,30,14,58,22.30
2007,08,30,14,59,22.30
2007,08,30,15,00,22.40
2007,08,30,15,01,22.40
2007,08,30,15,02,22.50
2007,08,30,15,03,22.50
2007,08,30,15,04,22.50
2007,08,30,15,05,22.40
2007,08,30,15,06,22.50
2007,08,30,15,07,22.60
2007,08,30,15,08,22.60
2007,08,30,15,09,22.70
2007,08,30,15,10,22.70
2007,08,30,15,11,22.70
2007,08,30,15,12,22.70
2007,08,30,15,13,22.60
2007,08,30,15,14,22.60
2007,08,30,15,15,22.50
2007,08,30,15,16,22.30
2007,08,30,15,17,22.30
2007,08,30,15,18,22.20
2007,08,30,15,19,22.10
2007,08,30,15,20,22.10
2007,08,30,15,21,22.10
2007,08,30,15,22,22.10
2007,08,30,15,23,22.00
2007,08,30,15,24,22.00
2007,08,30,15,25,21.90
2007,08,30,15,26,22.00
2007,08,30,15,27,22.00
2007,08,30,15,28,22.00
2007,08,30,15,29,22.00
2007,08,30,15,30,22.00
2007,08,30,15,31,22.00
2007,08,30,15,32,21.90
2007,08,30,15,33,21.90
2007,08,30,15,34,21.90
2007,08,30,15,35,21.80
2007,08,30,15,36,21.80
2007,08,30,15,37,21.80
2007,08,30,15,38,21.90
2007,08,30,15,39,21.90
2007,08,30,15,40,21.90
2007,08,30,15,41,21.90
2007,08,30,15,42,21.90
2007,08,30,15,43,21.90
2007,08,30,15,44,21.90
2007,08,30,15,45,21.90
2007,08,30,15,46,21.90
2007,08,30,15,47,21.90
2007,08,30,15,48,21.90
2007,08,30,15,49,21.90
2007,08,30,15,50,21.80
2007,08,30,15,51,21.80
2007,08,30,15,52,21.70
2007,08,30,15,53,21.70
2007,08,30,15,54,21.80
2007,08,30,15,55,21.80
2007,08,30,15,56,21.90
2007,08,30,15,57,21.90
2007,08,30,15,58,21.90
2007,08,30,15,59,21.90
2007,08,30,16,00,21.90
2007,08,30,16,01,21.90
2007,08,30,16,02,21.90
2007,08,30,16,03,21.80
2007,08,30,16,04,21.80
2007,08,30,16,05,21.80
2007,08,30,16,06,21.80
2007,08,30,16,07,21.90
2007,08,30,16,08,21.90
2007,08,30,16,09,21.90
2007,08,30,16,10,21.90
2007,08,30,16,11,21.90
2007,08,30,16,12,21.80
2007,08,30,16,13,21.70
2007,08,30,16,14,21.60
2007,08,30,16,15,21.60
2007,08,30,16,16,21.60
2007,08,30,16,17,21.60
2007,08,30,16,18,21.60
2007,08,30,16,19,21.60
2007,08,30,16,20,21.60
2007,08,30,16,21,21.40
2007,08,30,16,22,21.40
2007,08,30,16,23,21.40
2007,08,30,16,24,21.40
2007,08,30,16,25,21.40
2007,08,30,16,26,21.40
2007,08,30,16,27,21.40
2007,08,30,16,28,21.30
2007,08,30,16,29,21.40
2007,08,30,16,30,21.40
2007,08,30,16,31,21.40
2007,08,30,16,32,21.30
2007,08,30,16,33,21.30
2007,08,30,16,34,21.30
2007,08,30,16,35,21.30
2007,08,30,16,36,21.30
2007,08,30,16,37,21.30
2007,08,30,16,38,21.20
2007,08,30,16,39,21.10
2007,08,30,16,40,21.00
2007,08,30,16,41,20.90
2007,08,30,16,42,20.90
2007,08,30,16,43,20.90
2007,08,30,16,44,21.00
2007,08,30,16,45,21.00
2007,08,30,16,46,21.00
2007,08,30,16,47,21.10
2007,08,30,16,48,21.20
2007,08,30,16,49,21.20
2007,08,30,16,50,21.20
2007,08,30,16,51,21.20
2007,08,30,16,52,21.10
2007,08,30,16,53,21.10
2007,08,30,16,54,21.00
2007,08,30,16,55,20.90
2007,08,30,16,56,20.90
2007,08,30,16,57,20.90
2007,08,30,16,58,20.90
2007,08,30,16,59,20.90
2007,08,30,17,00,20.80
2007,08,30,17,01,20.70
2007,08,30,17,02,20.70
2007,08,30,17,03,20.70
2007,08,30,17,04,20.70
2007,08,30,17,05,20.70
2007,08,30,17,06,20.70
2007,08,30,17,07,20.70
2007,08,30,17,08,20.80
2007,08,30,17,09,20.80
2007,08,30,17,10,20.80
2007,08,30,17,11,20.90
2007,08,30,17,12,20.80
2007,08,30,17,13,20.80
2007,08,30,17,14,20.80
2007,08,30,17,15,20.80
2007,08,30,17,16,20.80
2007,08,30,17,17,20.70
2007,08,30,17,18,20.70
2007,08,30,17,19,20.70